sat.trackr.live / text

‹ back to catalog

STARLINK-32235

NORAD 60739 · 2024-152V

PAYLOAD ACTIVE UNKNOWN

§ Identity

Operator
Country
US
Launch date
2024-08-28
Launch site
AFETR
Launch vehicle
Mass (kg)
RCS (m²)

Purposes: comms

External: N2YO · Heavens-Above · Gunter

§ Orbital elements

Epoch: 2026-09-21T17:44:15.120096Z

Period
93.85 min
Inclination
53.1590°
Eccentricity
0.0001171
Mean motion
15.34386401 rev/d
Perigee alt
461.9 km
Apogee alt
463.5 km
Semi-major
6,840.9 km
B*
2.4369e-6
RAAN
75.9003°
Arg perigee
99.5759°
Mean anomaly
260.5376°
Rev number
11,684

§ Raw data

STARLINK-322351 60739U 24152V   26264.73906389 -.00000294  00000+0  24369-5 0  99982 60739  53.1590  75.9003 0001171  99.5759 260.5376 15.34386401116842

JSON: /api/v1/satellites/60739 · /tle

For live sub-satellite position, see the globe view (requires WebGL).

§ Visibility from observer

Set your observer location to see the next 7 days of passes ≥ 10°. The values pass through the URL so the page stays shareable.

No JS? Fill the form by hand. The geolocation button needs JavaScript.